OpenBCM V1.13 (Linux)

Packet Radio Mailbox

DB0FHN

[JN59NK Nuernberg]

 Login: GUEST





  
CX2SA  > KEPS     19.11.04 09:48l 277 Lines 7264 Bytes #999 (0) @ AMSAT
BID : ORB04323.D
Read: GUEST
Subj: Orbital Elements  04323.MICROS
Path: DB0FHN<DB0MRW<OK0PPL<DB0RES<ON0AR<7M3TJZ<EA5AKC<CX2SA
Sent: 041119/0736Z @:CX2SA.LAV.URY.SA #:40535 [Minas] FBB7.00e $:ORB04323.D
From: CX2SA@CX2SA.LAV.URY.SA
To  : KEPS@AMSAT


HR AMSAT ORBITAL ELEMENTS FOR THE MICROSATS
FROM WA5QGD FORT WORTH,TX November 18, 2004
SEND SUBSCRIBE/UNSUBSCRIBE TO majordomo@amsat.org ONLY
BID: ORB04323.D
TO ALL RADIO AMATEURS BT

Satellite: UO-14
Catalog number: 20437
Epoch time:      04323.64849436
Element set:     641
Inclination:       98.2018 deg
RA of node:       339.0910 deg
Eccentricity:    0.0011713
Arg of perigee:    99.2480 deg
Mean anomaly:     261.0027 deg
Mean motion:   14.31382975 rev/day
Decay rate:        6.3e-07 rev/day^2
Epoch rev:           77391
Checksum:              294

Satellite: AO-16
Catalog number: 20439
Epoch time:      04322.64322051
Element set:     330
Inclination:       98.2311 deg
RA of node:       353.0001 deg
Eccentricity:    0.0011808
Arg of perigee:   108.7250 deg
Mean anomaly:     251.5207 deg
Mean motion:   14.31642539 rev/day
Decay rate:       1.03e-06 rev/day^2
Epoch rev:           77382
Checksum:              243

Satellite: WO-18
Catalog number: 20441
Epoch time:      04323.00831647
Element set:     520
Inclination:       98.2440 deg
RA of node:       357.4833 deg
Eccentricity:    0.0012603
Arg of perigee:   108.9920 deg
Mean anomaly:     251.2618 deg
Mean motion:   14.31717997 rev/day
Decay rate:       1.56e-06 rev/day^2
Epoch rev:           77393
Checksum:              294

Satellite: LO-19
Catalog number: 20442
Epoch time:      04323.68057615
Element set:     256
Inclination:       98.2538 deg
RA of node:         2.2969 deg
Eccentricity:    0.0012717
Arg of perigee:   105.3785 deg
Mean anomaly:     254.8793 deg
Mean motion:   14.31889971 rev/day
Decay rate:       1.31e-06 rev/day^2
Epoch rev:           77409
Checksum:              326

Satellite: UO-22
Catalog number: 21575
Epoch time:      04323.09927839
Element set:     257
Inclination:       98.2151 deg
RA of node:       290.7540 deg
Eccentricity:    0.0007481
Arg of perigee:    14.5179 deg
Mean anomaly:     345.6231 deg
Mean motion:   14.39435419 rev/day
Decay rate:       1.46e-06 rev/day^2
Epoch rev:           70013
Checksum:              296

Satellite: KO-23
Catalog number: 22077
Epoch time:      04323.14872714
Element set:     316
Inclination:       66.0871 deg
RA of node:       228.4126 deg
Eccentricity:    0.0012977
Arg of perigee:   311.2301 deg
Mean anomaly:      48.7365 deg
Mean motion:   12.86427129 rev/day
Decay rate:       -3.7e-07 rev/day^2
Epoch rev:           57644
Checksum:              292

Satellite: AO-27
Catalog number: 22825
Epoch time:      04323.17492921
Element set:     991
Inclination:       98.2450 deg
RA of node:       323.9585 deg
Eccentricity:    0.0008716
Arg of perigee:   162.2493 deg
Mean anomaly:     197.8997 deg
Mean motion:   14.29097957 rev/day
Decay rate:        9.2e-07 rev/day^2
Epoch rev:           58108
Checksum:              353

Satellite: IO-26
Catalog number: 22826
Epoch time:      04323.45186453
Element set:     660
Inclination:       98.2414 deg
RA of node:       325.5089 deg
Eccentricity:    0.0009021
Arg of perigee:   159.6970 deg
Mean anomaly:     200.4577 deg
Mean motion:   14.29336161 rev/day
Decay rate:       1.17e-06 rev/day^2
Epoch rev:           58118
Checksum:              300

Satellite: KO-25
Catalog number: 22828
Epoch time:      04323.63553110
Element set:     925
Inclination:       98.2354 deg
RA of node:       325.9108 deg
Eccentricity:    0.0010492
Arg of perigee:   138.2138 deg
Mean anomaly:     221.9847 deg
Mean motion:   14.29653243 rev/day
Decay rate:       -3.3e-07 rev/day^2
Epoch rev:           54943
Checksum:              297

Satellite: TO-31
Catalog number: 25396
Epoch time:      04322.79274798
Element set:     105
Inclination:       98.5586 deg
RA of node:        30.1037 deg
Eccentricity:    0.0003528
Arg of perigee:    83.1450 deg
Mean anomaly:     277.0165 deg
Mean motion:   14.23643900 rev/day
Decay rate:       -4.3e-07 rev/day^2
Epoch rev:           33033
Checksum:              284

Satellite: GO-32
Catalog number: 25397
Epoch time:      04322.71937409
Element set:     603
Inclination:       98.5505 deg
RA of node:        27.9427 deg
Eccentricity:    0.0002159
Arg of perigee:    88.5245 deg
Mean anomaly:     271.6528 deg
Mean motion:   14.23059995 rev/day
Decay rate:        7.9e-07 rev/day^2
Epoch rev:           33025
Checksum:              321

Satellite: UO-36
Catalog number: 25693
Epoch time:      04323.83976810
Element set:     654
Inclination:       64.5583 deg
RA of node:       209.6637 deg
Eccentricity:    0.0043148
Arg of perigee:   239.0584 deg
Mean anomaly:     120.6260 deg
Mean motion:   14.78421309 rev/day
Decay rate:        8.2e-07 rev/day^2
Epoch rev:           30072
Checksum:              307

Satellite: SO-41
Catalog number: 26545
Epoch time:      04323.02291461
Element set:     930
Inclination:       64.5588 deg
RA of node:       228.0099 deg
Eccentricity:    0.0026796
Arg of perigee:   342.3295 deg
Mean anomaly:      17.6820 deg
Mean motion:   14.79931878 rev/day
Decay rate:       3.66e-06 rev/day^2
Epoch rev:           22367
Checksum:              326

Satellite: MO-46
Catalog number: 26548
Epoch time:      04322.79763499
Element set:      31
Inclination:       64.5581 deg
RA of node:       213.9517 deg
Eccentricity:    0.0026008
Arg of perigee:   328.0649 deg
Mean anomaly:      31.8854 deg
Mean motion:   14.82507097 rev/day
Decay rate:       4.52e-06 rev/day^2
Epoch rev:           22394
Checksum:              322

Satellite: SO-42
Catalog number: 26549
Epoch time:      04323.12385713
Element set:     988
Inclination:       64.5568 deg
RA of node:       235.1770 deg
Eccentricity:    0.0026402
Arg of perigee:   352.6963 deg
Mean anomaly:       7.3714 deg
Mean motion:   14.78821160 rev/day
Decay rate:       5.29e-06 rev/day^2
Epoch rev:           22354
Checksum:              308

Satellite: NO-44
Catalog number: 26931
Epoch time:      04323.00349994
Element set:     902
Inclination:       67.0546 deg
RA of node:        51.6848 deg
Eccentricity:    0.0007133
Arg of perigee:   268.3001 deg
Mean anomaly:      91.7285 deg
Mean motion:   14.29339461 rev/day
Decay rate:       -4.3e-07 rev/day^2
Epoch rev:           16358
Checksum:              300

Satellite: AO-49
Catalog number: 27605
Epoch time:      04322.77654745
Element set:     588
Inclination:       64.5593 deg
RA of node:        58.0782 deg
Eccentricity:    0.0085031
Arg of perigee:   281.5336 deg
Mean anomaly:      77.6235 deg
Mean motion:   14.71974510 rev/day
Decay rate:       1.36e-06 rev/day^2
Epoch rev:           10273
Checksum:              319

Satellite: SO-50
Catalog number: 27607
Epoch time:      04323.26952849
Element set:     570
Inclination:       64.5598 deg
RA of node:        61.0481 deg
Eccentricity:    0.0086007
Arg of perigee:   280.3147 deg
Mean anomaly:      78.8299 deg
Mean motion:   14.70791571 rev/day
Decay rate:       4.38e-06 rev/day^2
Epoch rev:           10271
Checksum:              320

Satellite: AO-51
Catalog number: 28375
Epoch time:      04322.74991915
Element set:     111
Inclination:       98.2428 deg
RA of node:        27.3664 deg
Eccentricity:    0.0084485
Arg of perigee:   148.9405 deg
Mean anomaly:     211.6805 deg
Mean motion:   14.40409643 rev/day
Decay rate:       -3.4e-07 rev/day^2
Epoch rev:            2017
Checksum:              298



Read previous mail | Read next mail


 11.09.2026 21:00:25lGo back Go up